EW1620 Weather Reports


Display with metric or nautical units.
time (UTC)temp
F
wind
direction
speed
MPH
gust
MPH
rain 1hr
in
rain 24hr
in
rain mn
in
humidity
%
barometer
mb
20260507220559 54 235 1.0 5.0 0.00 0.01 0.00 89 1022.8
20260507220059 54 237 1.0 7.0 0.00 0.01 0.00 89 1022.7
20260507215558 54 282 2.0 7.0 0.00 0.01 0.00 89 1022.6
20260507215055 54 221 1.0 8.0 0.00 0.01 0.00 89 1022.5
20260507214654 54 227 2.0 8.0 0.00 0.01 0.00 89 1022.4
20260507214050 53 209 3.0 8.0 0.00 0.01 0.00 89 1022.4
20260507213550 53 279 2.0 10.0 0.00 0.01 0.00 89 1022.4
20260507213049 53 225 4.0 10.0 0.00 0.01 0.00 89 1022.2
20260507212547 53 227 3.0 14.0 0.00 0.01 0.00 90 1022.1
20260507212046 53 259 5.0 14.0 0.00 0.01 0.00 90 1022.0
20260507211546 53 237 3.0 10.0 0.00 0.01 0.00 90 1022.1
20260507211044 53 296 2.0 10.0 0.00 0.01 0.00 90 1021.9
20260507210543 53 234 3.0 12.0 0.00 0.01 0.00 90 1021.9
20260507210050 53 194 2.0 12.0 0.00 0.01 0.00 90 1021.9
20260507205540 53 254 3.0 11.0 0.00 0.01 0.00 90 1021.9
20260507205041 53 236 1.0 10.0 0.00 0.01 0.00 90 1021.9
20260507204640 53 266 4.0 10.0 0.00 0.01 0.00 90 1021.9
20260507204039 53 213 3.0 9.0 0.00 0.01 0.00 90 1021.9
20260507203539 53 288 5.0 11.0 0.00 0.01 0.00 90 1021.9
20260507203106 53 228 2.0 11.0 0.00 0.01 0.00 90 1021.8
20260507202538 53 267 3.0 10.0 0.00 0.01 0.00 90 1021.8
20260507202040 53 242 4.0 16.0 0.00 0.01 0.00 90 1021.8
20260507201536 53 261 4.0 16.0 0.00 0.01 0.00 90 1021.7
20260507201039 53 269 4.0 12.0 0.00 0.01 0.00 90 1021.6
20260507200538 53 230 1.0 11.0 0.00 0.01 0.00 90 1021.6
20260507200035 53 244 2.0 11.0 0.00 0.01 0.00 90 1021.5
20260507195541 53 225 2.0 11.0 0.00 0.01 0.00 90 1021.6
20260507195034 53 291 3.0 11.0 0.00 0.01 0.00 90 1021.5
20260507194635 53 178 4.0 11.0 0.00 0.01 0.00 90 1021.5
20260507194033 53 252 2.0 9.0 0.00 0.01 0.00 90 1021.4
20260507193534 53 267 3.0 8.0 0.00 0.01 0.00 90 1021.4
20260507193038 54 260 2.0 6.0 0.00 0.01 0.00 90 1021.5
20260507192533 54 244 1.0 7.0 0.00 0.01 0.00 90 1021.5
20260507192033 54 292 1.0 7.0 0.00 0.01 0.00 90 1021.5
20260507191537 54 270 2.0 5.0 0.00 0.01 0.00 90 1021.6
20260507191031 54 261 2.0 8.0 0.00 0.01 0.00 90 1021.5
20260507190531 54 258 2.0 8.0 0.00 0.01 0.00 89 1021.4
20260507190031 54 267 1.0 7.0 0.00 0.01 0.00 89 1021.3
20260507185530 54 253 2.0 9.0 0.00 0.01 0.00 89 1021.2
20260507185030 54 249 1.0 9.0 0.00 0.01 0.00 89 1021.1
20260507184631 54 273 1.0 5.0 0.00 0.01 0.00 89 1021.0
20260507184029 54 214 1.0 6.0 0.00 0.01 0.00 89 1020.9
20260507183529 54 275 1.0 8.0 0.00 0.01 0.00 89 1020.8
20260507183029 54 238 3.0 8.0 0.00 0.01 0.00 89 1020.8
20260507182528 54 231 1.0 7.0 0.00 0.01 0.00 89 1020.8
20260507182028 54 250 1.0 9.0 0.00 0.01 0.00 89 1020.7
20260507181528 54 246 3.0 9.0 0.00 0.01 0.00 89 1020.7
20260507181028 54 239 1.0 10.0 0.00 0.01 0.00 88 1020.7
20260507180528 54 267 2.0 11.0 0.00 0.01 0.00 88 1020.7
20260507180026 54 217 4.0 11.0 0.00 0.01 0.00 88 1020.7
20260507175533 54 252 3.0 8.0 0.00 0.01 0.00 88 1020.6
20260507175027 54 227 0.0 4.0 0.00 0.01 0.00 88 1020.6
20260507174627 54 248 1.0 7.0 0.00 0.01 0.00 88 1020.6
20260507174029 54 221 2.0 8.0 0.00 0.01 0.00 88 1020.6
20260507173529 54 242 3.0 10.0 0.00 0.01 0.00 88 1020.5
20260507173049 53 266 4.0 10.0 0.00 0.01 0.00 88 1020.4
20260507172526 53 265 2.0 10.0 0.00 0.01 0.00 88 1020.3
20260507172026 53 252 3.0 12.0 0.00 0.01 0.00 88 1020.3
20260507171527 53 279 5.0 12.0 0.00 0.01 0.00 87 1020.3
20260507171025 53 321 1.0 5.0 0.00 0.01 0.00 87 1020.3
20260507170525 53 281 0.0 6.0 0.00 0.01 0.00 87 1020.2
20260507170026 53 269 2.0 6.0 0.00 0.02 0.00 87 1020.3
20260507165524 53 294 2.0 6.0 0.00 0.02 0.00 87 1020.2
20260507165023 53 277 1.0 6.0 0.00 0.02 0.00 86 1020.3
20260507164624 53 270 1.0 9.0 0.00 0.02 0.00 86 1020.3
20260507164023 53 262 3.0 9.0 0.00 0.02 0.00 86 1020.4
20260507163524 53 283 2.0 8.0 0.00 0.02 0.00 86 1020.5
20260507163025 53 281 3.0 10.0 0.00 0.02 0.00 86 1020.4
20260507162526 53 262 2.0 11.0 0.00 0.02 0.00 86 1020.4
20260507162020 53 250 3.0 14.0 0.00 0.02 0.00 85 1020.4
20260507161519 53 259 4.0 14.0 0.00 0.02 0.00 85 1020.4
20260507161017 53 242 4.0 12.0 0.00 0.02 0.00 85 1020.4
20260507160516 53 263 5.0 12.0 0.00 0.02 0.00 85 1020.5
20260507160016 53 269 3.0 11.0 0.00 0.05 0.00 85 1020.5
20260507155516 53 274 6.0 14.0 0.00 0.05 0.00 85 1020.4
20260507155014 53 203 5.0 14.0 0.00 0.05 0.00 85 1020.4
20260507154612 53 247 2.0 11.0 0.00 0.05 0.00 85 1020.7
20260507154012 53 231 4.0 16.0 0.00 0.05 0.00 85 1020.8
20260507153509 53 193 5.0 16.0 0.00 0.05 0.00 85 1020.8
20260507153009 53 269 4.0 19.0 0.00 0.05 0.00 84 1020.8
20260507152513 53 230 4.0 19.0 0.00 0.05 0.00 84 1020.8
20260507152013 53 243 5.0 12.0 0.00 0.05 0.00 84 1020.8
20260507151508 53 230 3.0 19.0 0.00 0.05 0.00 84 1020.8
20260507151008 53 263 4.0 19.0 0.00 0.05 0.00 84 1020.8
20260507150509 53 269 4.0 12.0 0.00 0.05 0.00 84 1020.9
20260507150005 53 273 3.0 11.0 0.00 0.05 0.00 84 1020.9
20260507145503 53 202 3.0 17.0 0.00 0.05 0.00 84 1021.0
20260507145005 53 294 4.0 16.0 0.00 0.05 0.00 84 1021.0
20260507144619 53 249 3.0 11.0 0.00 0.05 0.00 84 1021.1
20260507144001 53 217 4.0 13.0 0.00 0.05 0.00 84 1021.3
20260507143601 53 251 5.0 15.0 0.00 0.05 0.00 84 1021.3
20260507143104 53 295 7.0 15.0 0.00 0.05 0.00 84 1021.3
20260507142559 53 255 6.0 14.0 0.00 0.05 0.00 84 1021.2
20260507142058 53 261 6.0 16.0 0.00 0.05 0.00 84 1021.3
20260507141603 52 247 8.0 20.0 0.00 0.05 0.00 84 1021.2
20260507141057 52 265 8.0 20.0 0.00 0.05 0.00 83 1021.2
20260507140557 52 292 7.0 18.0 0.00 0.05 0.00 83 1021.2
20260507140056 52 296 6.0 18.0 0.00 0.05 0.00 83 1021.2
20260507135600 52 254 8.0 19.0 0.00 0.05 0.05 83 1021.0
20260507135055 52 298 10.0 20.0 0.00 0.05 0.05 83 1020.9
20260507134556 52 286 9.0 19.0 0.00 0.05 0.05 83 1020.9
20260507134054 52 282 5.0 19.0 0.00 0.05 0.05 83 1021.0
20260507133555 52 246 9.0 18.0 0.00 0.05 0.05 83 1021.0
20260507133139 52 275 8.0 18.0 0.00 0.05 0.05 83 1021.3
20260507132554 52 270 6.0 18.0 0.00 0.05 0.05 83 1021.6
20260507132054 52 259 6.0 17.0 0.00 0.05 0.05 82 1021.9
20260507131555 52 232 1.0 14.0 0.00 0.05 0.05 82 1021.9
20260507131054 52 274 4.0 14.0 0.00 0.05 0.05 82 1021.8
20260507130556 52 241 3.0 10.0 0.00 0.05 0.05 82 1021.9
20260507125554 52 266 3.0 13.0 0.00 0.05 0.05 82 1022.0
20260507125054 52 201 5.0 13.0 0.00 0.05 0.05 82 1021.9
20260507124600 52 271 4.0 14.0 0.00 0.05 0.05 82 1022.0
20260507124057 52 275 3.0 14.0 0.00 0.05 0.05 82 1022.0
20260507123555 52 249 3.0 12.0 0.00 0.05 0.05 81 1022.2
20260507123055 52 259 5.0 15.0 0.00 0.05 0.05 81 1022.2
20260507122556 52 221 5.0 15.0 0.00 0.05 0.05 81 1022.2
20260507122054 52 263 5.0 18.0 0.00 0.05 0.05 81 1022.1
20260507121554 52 235 5.0 18.0 0.00 0.05 0.05 81 1022.1
20260507121054 52 238 4.0 14.0 0.00 0.05 0.05 81 1022.1
20260507120554 51 244 3.0 11.0 0.00 0.05 0.05 81 1022.2
20260507120054 51 280 2.0 9.0 0.00 0.05 0.05 81 1022.3
20260507115554 51 167 2.0 8.0 0.00 0.05 0.05 81 1022.5
20260507115054 51 247 4.0 8.0 0.00 0.05 0.05 81 1022.6
20260507114609 51 229 2.0 8.0 0.00 0.05 0.05 81 1022.5
20260507114052 51 226 3.0 12.0 0.00 0.05 0.05 81 1022.6
20260507113551 51 220 4.0 13.0 0.00 0.05 0.05 80 1022.6
20260507113051 51 262 2.0 11.0 0.00 0.05 0.05 80 1022.4
20260507112552 51 242 2.0 11.0 0.00 0.05 0.05 80 1022.5
20260507112054 51 307 1.0 11.0 0.00 0.05 0.05 80 1022.3
20260507111552 51 239 3.0 11.0 0.00 0.05 0.05 79 1022.4
20260507111051 51 274 2.0 11.0 0.00 0.05 0.05 79 1022.4
20260507110555 51 266 5.0 11.0 0.00 0.05 0.05 79 1022.5
20260507110051 51 241 4.0 17.0 0.00 0.05 0.05 79 1022.6
20260507105551 51 259 6.0 17.0 0.00 0.05 0.05 79 1022.6
20260507105051 51 245 4.0 11.0 0.00 0.05 0.05 79 1022.7
20260507104552 51 303 3.0 12.0 0.00 0.05 0.05 78 1022.7
20260507104050 51 285 6.0 12.0 0.00 0.05 0.05 78 1022.7
20260507103550 51 263 4.0 11.0 0.00 0.05 0.05 78 1022.7
20260507103055 51 257 4.0 11.0 0.00 0.05 0.05 78 1022.9
20260507102550 51 289 4.0 11.0 0.00 0.05 0.05 77 1022.9
20260507102050 51 304 3.0 9.0 0.00 0.05 0.05 77 1022.9
20260507101550 51 288 4.0 10.0 0.00 0.05 0.05 76 1023.0
20260507101052 51 300 4.0 10.0 0.00 0.05 0.05 76 1023.1
20260507100554 51 284 5.0 13.0 0.00 0.05 0.05 76 1023.2
20260507100051 51 294 4.0 13.0 0.00 0.05 0.05 76 1023.1
20260507095552 51 276 5.0 12.0 0.00 0.06 0.05 75 1023.1
20260507095049 51 265 5.0 10.0 0.00 0.06 0.05 75 1023.0
20260507094558 51 252 3.0 15.0 0.00 0.06 0.05 75 1023.0
20260507094051 51 220 8.0 15.0 0.00 0.06 0.05 75 1023.0
20260507093550 51 271 2.0 14.0 0.00 0.06 0.05 75 1022.9
20260507093050 51 267 1.0 12.0 0.00 0.06 0.05 75 1022.9
20260507092550 51 284 3.0 9.0 0.00 0.06 0.05 75 1022.8
20260507092051 51 308 2.0 5.0 0.00 0.06 0.05 75 1022.8
20260507091552 51 225 2.0 10.0 0.00 0.06 0.05 75 1022.8
20260507091050 51 294 3.0 10.0 0.00 0.06 0.05 75 1022.9
20260507090551 51 279 4.0 12.0 0.00 0.06 0.05 75 1022.8
20260507090049 51 265 5.0 12.0 0.00 0.06 0.05 74 1022.9
20260507085549 52 263 3.0 10.0 0.00 0.10 0.05 74 1022.9
20260507085049 52 265 4.0 10.0 0.00 0.10 0.05 74 1022.9
20260507084549 52 281 1.0 9.0 0.00 0.10 0.05 73 1022.7
20260507084046 52 271 4.0 9.0 0.00 0.10 0.05 73 1022.8
20260507083546 52 279 2.0 11.0 0.00 0.10 0.05 73 1022.8
20260507083046 52 256 6.0 11.0 0.00 0.10 0.05 72 1022.8
20260507082545 52 300 1.0 10.0 0.00 0.10 0.05 72 1022.7
20260507082047 52 257 1.0 11.0 0.00 0.10 0.05 72 1022.7
20260507081545 52 280 2.0 13.0 0.00 0.10 0.05 72 1022.6
20260507081047 52 321 4.0 13.0 0.00 0.10 0.05 71 1022.5
20260507080545 52 252 5.0 11.0 0.00 0.10 0.05 71 1022.4
20260507080046 52 278 4.0 10.0 0.00 0.10 0.05 71 1022.4
20260507075545 52 236 3.0 11.0 0.00 0.19 0.05 70 1022.3
20260507075045 53 261 6.0 12.0 0.00 0.19 0.05 70 1022.3
20260507074549 53 242 5.0 13.0 0.00 0.19 0.05 69 1022.4
20260507074049 53 269 3.0 13.0 0.00 0.19 0.05 68 1022.4
20260507073549 53 244 4.0 13.0 0.00 0.19 0.05 68 1022.4
20260507073101 53 279 3.0 10.0 0.00 0.19 0.05 68 1022.5
20260507072549 53 260 4.0 14.0 0.00 0.19 0.05 68 1022.3
20260507072049 53 193 3.0 12.0 0.00 0.19 0.05 68 1022.3
20260507071549 53 246 4.0 9.0 0.00 0.19 0.05 68 1022.3
20260507071048 53 242 3.0 9.0 0.00 0.19 0.05 68 1022.3
20260507070548 53 242 2.0 7.0 0.00 0.19 0.05 68 1022.2
20260507070056 53 249 1.0 9.0 0.00 0.19 0.05 67 1022.2
20260507065548 53 244 2.0 10.0 0.00 0.19 0.05 67 1022.2
20260507065048 54 271 3.0 10.0 0.00 0.19 0.05 66 1022.2
20260507064553 54 247 2.0 10.0 0.00 0.19 0.05 66 1022.2
20260507064043 54 267 3.0 11.0 0.00 0.19 0.05 66 1022.3
20260507063543 54 257 3.0 13.0 0.00 0.19 0.05 66 1022.4
20260507063043 54 259 5.0 13.0 0.00 0.19 0.05 66 1022.5
20260507062543 54 236 5.0 12.0 0.00 0.19 0.05 67 1022.4
20260507062043 54 272 5.0 12.0 0.00 0.19 0.05 69 1022.3
20260507061543 54 302 5.0 11.0 0.00 0.19 0.05 70 1022.4
20260507061044 53 229 2.0 8.0 0.01 0.19 0.05 71 1022.4
20260507060542 53 262 1.0 8.0 0.01 0.19 0.05 71 1022.6
20260507060044 53 231 2.0 6.0 0.01 0.19 0.05 72 1022.5
20260507055543 53 223 2.0 10.0 0.01 0.19 0.05 72 1022.5
20260507055041 53 227 3.0 10.0 0.01 0.19 0.05 72 1022.4
20260507054542 53 234 2.0 10.0 0.01 0.19 0.05 74 1022.3
20260507054043 53 259 2.0 6.0 0.01 0.19 0.05 74 1022.4
20260507053543 53 254 1.0 7.0 0.01 0.19 0.05 75 1022.4
20260507053044 53 263 2.0 7.0 0.01 0.19 0.05 74 1022.4
20260507052543 53 224 3.0 11.0 0.01 0.19 0.05 74 1022.5
20260507052043 53 273 3.0 12.0 0.01 0.19 0.05 74 1022.5
20260507051543 54 277 3.0 11.0 0.01 0.19 0.05 74 1022.5
20260507051042 54 267 2.0 8.0 0.00 0.18 0.04 74 1022.5
20260507050542 54 248 1.0 9.0 0.00 0.18 0.04 73 1022.4
20260507050043 54 290 4.0 9.0 0.00 0.18 0.04 73 1022.3
20260507045542 54 281 3.0 14.0 0.00 0.18 0.04 71 1022.4
20260507045042 55 256 7.0 14.0 0.00 0.18 0.04 68 1022.5
20260507044556 55 259 3.0 12.0 0.00 0.18 0.04 66 1022.4
20260507044040 55 298 5.0 12.0 0.00 0.18 0.04 66 1022.3
20260507043539 56 296 5.0 14.0 0.00 0.18 0.04 65 1022.1
20260507043041 56 275 4.0 13.0 0.00 0.18 0.04 64 1022.2
20260507042539 56 188 7.0 15.0 0.00 0.18 0.04 62 1022.2
20260507042037 56 229 5.0 15.0 0.00 0.18 0.04 64 1022.4
20260507041544 55 244 5.0 10.0 0.00 0.18 0.04 65 1022.4
20260507041037 55 236 6.0 13.0 0.00 0.18 0.04 67 1022.2
20260507040536 54 257 3.0 13.0 0.00 0.18 0.04 68 1022.2
20260507040042 54 250 3.0 13.0 0.00 0.18 0.04 68 1022.4
20260507035536 54 300 6.0 14.0 0.00 0.18 0.04 69 1022.3
20260507035036 54 221 8.0 14.0 0.00 0.18 0.04 67 1022.3
20260507034542 54 281 3.0 13.0 0.00 0.18 0.04 65 1022.4
20260507034034 54 212 7.0 15.0 0.00 0.18 0.04 64 1022.4
20260507033535 54 145 6.0 17.0 0.00 0.18 0.04 65 1022.3
20260507033044 54 240 7.0 17.0 0.00 0.18 0.04 65 1022.5
20260507032534 54 209 3.0 13.0 0.00 0.18 0.04 64 1022.6
20260507032040 54 241 7.0 13.0 0.00 0.18 0.04 64 1022.6
20260507031550 54 283 4.0 11.0 0.00 0.18 0.04 64 1022.5
20260507031033 54 207 5.0 16.0 0.00 0.18 0.04 64 1022.7
20260507030533 55 242 5.0 16.0 0.00 0.18 0.04 65 1022.6
20260507030038 55 196 5.0 16.0 0.00 0.18 0.04 66 1022.7
20260507025532 55 225 6.0 16.0 0.00 0.18 0.04 64 1022.5
20260507025036 55 213 3.0 12.0 0.00 0.18 0.04 61 1022.6
20260507024539 55 301 5.0 18.0 0.00 0.18 0.04 60 1022.6
20260507024033 55 203 6.0 18.0 0.00 0.18 0.04 61 1022.6
20260507023532 55 209 7.0 15.0 0.00 0.18 0.04 61 1022.8
20260507023031 55 266 7.0 16.0 0.00 0.18 0.04 61 1022.7
20260507022531 55 210 6.0 14.0 0.00 0.18 0.04 62 1022.8
20260507022031 55 190 4.0 16.0 0.00 0.18 0.04 63 1022.8
20260507021530 54 208 7.0 13.0 0.00 0.18 0.04 63 1022.9
20260507021028 54 281 4.0 12.0 0.00 0.18 0.04 64 1022.9
20260507020527 53 205 4.0 13.0 0.00 0.18 0.04 64 1022.9
20260507020027 53 202 8.0 13.0 0.00 0.18 0.04 63 1023.0
20260507015526 53 257 6.0 15.0 0.00 0.18 0.04 63 1023.1
20260507015025 53 223 5.0 14.0 0.00 0.18 0.04 64 1023.1
20260507014535 53 261 7.0 12.0 0.00 0.18 0.04 65 1023.1
20260507014024 53 200 2.0 11.0 0.00 0.18 0.04 65 1023.1
20260507013522 53 258 4.0 17.0 0.00 0.18 0.04 65 1023.1
20260507013027 52 224 6.0 17.0 0.00 0.18 0.04 66 1023.0
20260507012523 52 261 6.0 13.0 0.00 0.18 0.04 67 1022.9
20260507012019 52 248 7.0 12.0 0.00 0.18 0.04 69 1023.0
20260507011528 51 284 3.0 12.0 0.00 0.18 0.04 70 1023.0
20260507011015 51 236 6.0 12.0 0.00 0.18 0.04 71 1023.0
20260507010516 50 236 4.0 12.0 0.00 0.18 0.04 71 1023.1
20260507010018 50 257 5.0 13.0 0.00 0.18 0.04 71 1023.1
20260507005514 50 234 5.0 13.0 0.00 0.18 0.04 72 1023.2
20260507005014 49 236 7.0 10.0 0.00 0.18 0.04 72 1023.1
20260507004511 49 205 3.0 14.0 0.00 0.18 0.04 72 1023.2
20260507004012 49 295 7.0 14.0 0.00 0.18 0.04 72 1023.0
20260507003512 49 287 5.0 13.0 0.00 0.18 0.04 72 1023.0
20260507003009 49 267 4.0 14.0 0.00 0.18 0.04 72 1023.0
20260507002509 49 220 6.0 14.0 0.00 0.18 0.04 72 1022.9
20260507002008 49 223 4.0 12.0 0.00 0.18 0.04 73 1022.9
20260507001509 49 267 5.0 15.0 0.00 0.18 0.04 73 1022.9
20260507001007 49 250 4.0 15.0 0.00 0.18 0.04 73 1022.7
20260507000506 48 209 5.0 13.0 0.00 0.18 0.04 73 1022.6
20260507000004 48 254 5.0 12.0 0.00 0.18 0.04 74 1022.5
20260506235504 48 246 4.0 10.0 0.00 0.18 0.04 74 1022.4
20260506235002 48 246 2.0 10.0 0.00 0.18 0.04 74 1022.5
20260506234504 48 220 4.0 13.0 0.00 0.18 0.04 74 1022.5
20260506234004 48 264 5.0 11.0 0.00 0.18 0.04 74 1022.5
20260506233503 47 240 5.0 12.0 0.00 0.18 0.04 75 1022.4
20260506233002 47 257 3.0 11.0 0.00 0.18 0.04 75 1022.2
20260506232500 47 257 4.0 11.0 0.00 0.18 0.04 76 1022.3
20260506232102 47 262 6.0 10.0 0.00 0.18 0.04 76 1022.2
20260506231559 47 219 3.0 17.0 0.00 0.18 0.04 77 1022.2
20260506231059 47 186 4.0 17.0 0.00 0.18 0.04 77 1022.2
20260506230556 46 226 3.0 11.0 0.00 0.18 0.04 78 1022.3
20260506225553 45 279 4.0 12.0 0.00 0.18 0.04 78 1022.2
20260506225054 45 271 4.0 10.0 0.00 0.18 0.04 79 1022.2
20260506224554 45 274 3.0 10.0 0.00 0.18 0.04 79 1022.1
20260506224046 44 252 3.0 12.0 0.00 0.18 0.04 80 1022.0
20260506223547 44 254 4.0 12.0 0.00 0.18 0.04 80 1021.9
20260506223045 44 295 4.0 12.0 0.00 0.18 0.04 80 1021.9
20260506222545 43 252 3.0 14.0 0.00 0.18 0.04 80 1021.8
20260506222042 43 243 2.0 14.0 0.00 0.18 0.04 81 1021.8
20260506221541 43 250 6.0 16.0 0.00 0.18 0.04 81 1021.8
20260506221039 43 268 7.0 16.0 0.00 0.18 0.04 81 1021.7